Concord, NH

2:45 PM EST on February 06, 2016 (GMT -0500)
Concord Municipal

Weather History for KCON - September, 2011

Change the Weather History Date:

Thursday, September 29, 2011

  Actual Average Record
Temperature  
Mean Temperature 62 °F 54 °F  
Max Temperature 66 °F 67 °F 86 °F (1952)
Min Temperature 57 °F 42 °F 25 °F (1947)
Degree Days  
Heating Degree Days 3 11  
Month to date heating degree days 97 175  
Since 1 July heating degree days 104 223  
Cooling Degree Days 0 0  
Month to date cooling degree days 74 37  
Year to date cooling degree days 561 450  
Growing Degree Days 12 (Base 50)    
Moisture  
Dew Point 61 °F    
Average Humidity 92    
Maximum Humidity 100    
Minimum Humidity 84    
Precipitation  
Precipitation 3.35 in 0.13 in 3.35 in (2011)
Month to date precipitation 7.12 3.25  
Year to date precipitation 40.09 29.52  
Snow  
Snow 0.00 in 0.00 in T in (1911)
Month to date snowfall 0.0 0.0  
Since 1 July snowfall 0.0 0.0  
Since 1 September snowfall 0.0 0.0  
Snow Depth 0.00 in    
Sea Level Pressure  
Sea Level Pressure 29.77 in    
Wind  
Wind Speed 4 mph (NE)    
Max Wind Speed 12 mph    
Max Gust Speed 15 mph    
Visibility 4 miles    
Events Rain , Thunderstorm    
T = Trace of Precipitation, MM = Missing Value Source: NWS Daily Summary

Daily Weather History Graph

Daily Weather History Graph

Search for Another Location

Airport or City:

Trip Planner

Search our weather history database for the weather conditions in past years. The results will help you decide how hot, cold, wet, or windy it might be!

Date:

Astronomy

Sep. 29, 2011 Rise Set
Actual Time 6:40 AM EDT 6:31 PM EDT
Civil Twilight 6:12 AM EDT 6:59 PM EDT
Nautical Twilight 5:39 AM EDT 7:32 PM EDT
Astronomical Twilight 5:05 AM EDT 8:06 PM EDT
Moon 9:28 AM EDT (9/29) 7:34 PM EDT (9/29)
Length of Visible Light 12h 47m
Length of Day
11h 50m
Waxing Crescent, 7% of the Moon is Illuminated
Sep 29
Waxing Crescent
Oct 3
First Quarter
Oct 11
Full
Oct 19
Last Quarter
Oct 26
New

Hourly Weather History & Observations

Time (EDT) Temp. Dew Point Humidity Pressure Visibility Wind Dir Wind Speed Gust Speed Precip Events Conditions
12:51 AM 62.1 °F 57.0 °F 84% 29.99 in 10.0 mi ENE 4.6 mph - N/A   Overcast
1:23 AM 60.8 °F 57.2 °F 88% 29.99 in 10.0 mi East 3.5 mph - N/A   Overcast
1:51 AM 61.0 °F 57.0 °F 87% 29.98 in 10.0 mi NE 3.5 mph - N/A   Overcast
2:51 AM 61.0 °F 57.0 °F 87% 29.95 in 10.0 mi East 4.6 mph - 0.00 in Rain Light Rain
3:11 AM 60.8 °F 57.2 °F 88% 29.94 in 1.8 mi ENE 4.6 mph - 0.06 in Rain Heavy Rain
3:31 AM 59.0 °F 59.0 °F 100% 29.93 in 2.5 mi ENE 3.5 mph - 0.23 in Rain Rain
3:36 AM 59.0 °F 59.0 °F 100% 29.93 in 3.0 mi Calm Calm - 0.25 in Rain Rain
3:51 AM 60.1 °F 57.9 °F 93% 29.93 in 5.0 mi Calm Calm - 0.27 in Rain Light Rain
4:18 AM 60.8 °F 59.0 °F 94% 29.92 in 2.5 mi East 4.6 mph - 0.08 in Rain Rain
4:27 AM 60.8 °F 59.0 °F 94% 29.91 in 3.0 mi ENE 5.8 mph - 0.10 in Rain Light Rain
4:51 AM 60.1 °F 59.0 °F 96% 29.91 in 4.0 mi East 4.6 mph - 0.14 in Rain Heavy Rain
5:01 AM 60.8 °F 59.0 °F 94% 29.90 in 3.0 mi ENE 4.6 mph - 0.02 in Rain Heavy Rain
5:09 AM 59.0 °F 59.0 °F 100% 29.90 in 2.0 mi NNE 3.5 mph - 0.10 in Rain Heavy Rain
5:16 AM 60.8 °F 59.0 °F 94% 29.90 in 2.5 mi NNE 3.5 mph - 0.12 in Rain Heavy Rain
5:24 AM 60.8 °F 59.0 °F 94% 29.89 in 3.0 mi Calm Calm - 0.16 in Rain Rain
5:28 AM 60.8 °F 59.0 °F 94% 29.89 in 2.5 mi Calm Calm - 0.18 in Rain Heavy Rain
5:51 AM 59.0 °F 59.0 °F 100% 29.88 in 3.0 mi North 3.5 mph - 0.30 in Rain Rain
6:08 AM 59.0 °F 59.0 °F 100% 29.88 in 2.5 mi North 3.5 mph - 0.06 in Rain Rain
6:15 AM 59.0 °F 59.0 °F 100% 29.88 in 1.8 mi NNE 4.6 mph - 0.12 in Rain Heavy Rain
6:27 AM 59.0 °F 59.0 °F 100% 29.87 in 2.0 mi NE 8.1 mph - 0.22 in Rain Heavy Rain
6:41 AM 59.0 °F 59.0 °F 100% 29.88 in 3.0 mi Calm Calm - 0.32 in Rain Rain
6:48 AM 60.8 °F 59.0 °F 94% 29.87 in 2.5 mi NNW 3.5 mph - 0.34 in Rain Rain
6:51 AM 59.0 °F 59.0 °F 100% 29.88 in 1.8 mi North 3.5 mph - 0.38 in Rain Heavy Rain
6:56 AM 60.8 °F 59.0 °F 94% 29.87 in 1.8 mi North 3.5 mph - 0.03 in Rain Rain
7:08 AM 59.0 °F 59.0 °F 100% 29.87 in 1.8 mi NNE 4.6 mph - 0.10 in Rain Heavy Rain
7:17 AM 59.0 °F 59.0 °F 100% 29.87 in 1.2 mi NNE 3.5 mph - 0.20 in Rain Heavy Rain
7:48 AM 59.0 °F 59.0 °F 100% 29.86 in 1.8 mi ENE 8.1 mph - 0.48 in Rain Rain
7:51 AM 59.0 °F 59.0 °F 100% 29.86 in 2.5 mi ENE 9.2 mph - 0.49 in Rain Rain
8:01 AM 59.0 °F 59.0 °F 100% 29.85 in 1.2 mi ENE 6.9 mph - 0.06 in Rain Heavy Rain
8:10 AM 60.8 °F 59.0 °F 94% 29.85 in 1.8 mi NE 6.9 mph - 0.09 in Rain Heavy Rain
8:16 AM 60.8 °F 59.0 °F 94% 29.85 in 2.0 mi NE 6.9 mph - 0.10 in Rain Light Rain
8:25 AM 60.8 °F 59.0 °F 94% 29.85 in 6.0 mi ENE 8.1 mph - 0.10 in Rain Light Rain
8:51 AM 60.1 °F 59.0 °F 96% 29.85 in 5.0 mi NE 4.6 mph - 0.10 in Rain Light Rain
9:00 AM 60.8 °F 60.8 °F 100% 29.84 in 2.5 mi NNE 4.6 mph - 0.00 in Rain Light Rain
9:16 AM 60.8 °F 60.8 °F 100% 29.84 in 3.0 mi NNE 5.8 mph - 0.01 in Rain Light Rain
9:25 AM 60.8 °F 60.8 °F 100% 29.84 in 1.8 mi North 3.5 mph - 0.01 in Rain Light Rain
9:42 AM 60.8 °F 60.8 °F 100% 29.83 in 3.0 mi Calm Calm - 0.02 in Rain Light Rain
9:51 AM 62.1 °F 61.0 °F 96% 29.83 in 3.0 mi Calm Calm - 0.03 in Rain Light Rain
10:24 AM 62.6 °F 60.8 °F 94% 29.82 in 1.8 mi Calm Calm - 0.01 in Rain Rain
10:30 AM 62.6 °F 60.8 °F 94% 29.81 in 0.8 mi ENE 3.5 mph - 0.07 in Rain Heavy Rain
10:40 AM 62.6 °F 62.6 °F 100% 29.81 in 1.5 mi NE 3.5 mph - 0.17 in Rain Light Rain
10:49 AM 62.6 °F 60.8 °F 94% 29.80 in 2.5 mi NE 3.5 mph - 0.18 in Rain Light Rain
10:51 AM 62.1 °F 61.0 °F 96% 29.80 in 2.5 mi NE 3.5 mph - 0.18 in Rain Light Rain
10:57 AM 62.6 °F 62.6 °F 100% 29.80 in 1.2 mi NE 4.6 mph - 0.02 in Rain Rain
11:12 AM 62.6 °F 62.6 °F 100% 29.80 in 2.0 mi Calm Calm - 0.04 in Rain Light Rain
11:51 AM 64.0 °F 63.0 °F 96% 29.78 in 3.0 mi ENE 3.5 mph - 0.06 in Rain Light Rain
12:51 PM 64.9 °F 63.0 °F 93% 29.75 in 10.0 mi Variable 3.5 mph - N/A   Overcast
1:44 PM 64.4 °F 62.6 °F 94% 29.73 in 1.8 mi Calm Calm - N/A   Overcast
1:51 PM 64.0 °F 64.0 °F 100% 29.73 in 1.0 mi East 3.5 mph - 0.00 in Rain Light Rain
2:00 PM 64.4 °F 64.4 °F 100% 29.72 in 0.8 mi ESE 3.5 mph - 0.01 in Rain Light Rain
2:24 PM 64.4 °F 64.4 °F 100% 29.72 in 1.0 mi NW 8.1 mph - 0.03 in Rain Light Rain
2:30 PM 62.6 °F 60.8 °F 94% 29.71 in 0.8 mi NNW 9.2 mph - 0.05 in Rain Rain
2:40 PM 62.6 °F 62.6 °F 100% 29.70 in 1.5 mi NW 10.4 mph - 0.10 in Rain Rain
2:46 PM 62.6 °F 62.6 °F 100% 29.70 in 3.0 mi NNW 5.8 mph - 0.10 in Rain Light Rain
2:51 PM 63.0 °F 62.1 °F 97% 29.69 in 4.0 mi NW 6.9 mph - 0.10 in Rain Light Rain
3:15 PM 64.4 °F 62.6 °F 94% 29.68 in 3.0 mi NW 4.6 mph - 0.00 in   Overcast
3:26 PM 62.6 °F 62.6 °F 100% 29.68 in 1.8 mi WNW 5.8 mph - 0.00 in Rain Light Rain
3:36 PM 62.6 °F 62.6 °F 100% 29.67 in 1.8 mi NNW 4.6 mph - 0.01 in Rain Light Rain
3:43 PM 62.6 °F 62.6 °F 100% 29.67 in 2.0 mi Calm Calm - 0.02 in Rain Light Rain
3:51 PM 64.0 °F 64.0 °F 100% 29.66 in 2.5 mi Calm Calm - 0.02 in Rain Light Rain
4:06 PM 64.4 °F 64.4 °F 100% 29.66 in 3.0 mi Calm Calm - 0.00 in   Overcast
4:51 PM 64.9 °F 64.0 °F 97% 29.62 in 10.0 mi Calm Calm - 0.00 in   Overcast
5:51 PM 64.0 °F 64.0 °F 100% 29.59 in 7.0 mi East 4.6 mph - 0.00 in Rain , Thunderstorm Light Thunderstorms and Rain
5:56 PM 64.4 °F 64.4 °F 100% 29.59 in 1.8 mi ESE 4.6 mph - 0.05 in Rain , Thunderstorm Heavy Thunderstorms and Rain
6:16 PM 64.4 °F 62.6 °F 94% 29.57 in 0.8 mi East 6.9 mph - 1.05 in Rain , Thunderstorm Heavy Thunderstorms and Rain
6:19 PM 64.4 °F 62.6 °F 94% 29.57 in 1.2 mi East 6.9 mph - 1.06 in Rain , Thunderstorm Thunderstorms and Rain
6:21 PM 64.4 °F 62.6 °F 94% 29.57 in 2.0 mi East 4.6 mph - 1.07 in Rain , Thunderstorm Thunderstorms and Rain
6:24 PM 64.4 °F 62.6 °F 94% 29.57 in 4.0 mi ESE 5.8 mph - 1.07 in Rain , Thunderstorm Light Thunderstorms and Rain
6:47 PM 64.4 °F 62.6 °F 94% 29.58 in 9.0 mi SE 4.6 mph - 1.08 in Rain Light Rain
6:51 PM 64.0 °F 63.0 °F 96% 29.58 in 4.0 mi SSE 3.5 mph - 1.08 in Rain Rain
6:58 PM 64.4 °F 64.4 °F 100% 29.59 in 2.0 mi South 6.9 mph - 0.05 in Rain Heavy Rain
7:18 PM 64.4 °F 64.4 °F 100% 29.58 in 9.0 mi SE 5.8 mph - 0.16 in Rain Light Rain
7:29 PM 64.4 °F 64.4 °F 100% 29.58 in 5.0 mi Calm Calm - 0.18 in Rain Light Rain
7:32 PM 64.4 °F 64.4 °F 100% 29.58 in 6.0 mi WNW 3.5 mph - 0.18 in Rain Light Rain
7:51 PM 64.9 °F 64.0 °F 97% 29.57 in 10.0 mi Calm Calm - 0.18 in Rain Light Rain
8:51 PM 64.0 °F 63.0 °F 96% 29.58 in 10.0 mi SSW 8.1 mph - 0.00 in   Mostly Cloudy
9:51 PM 62.1 °F 60.1 °F 93% 29.57 in 10.0 mi South 4.6 mph - 0.00 in   Partly Cloudy
10:51 PM 61.0 °F 57.9 °F 90% 29.59 in 10.0 mi SSW 6.9 mph - 0.02 in Rain Light Rain
11:51 PM 57.9 °F 57.0 °F 97% 29.60 in 9.0 mi South 5.8 mph - 0.00 in   Clear